Mount Carmel, IL

1:48 PM CST on November 20, 2017 (GMT -0600)
Mount Carmel Municipal

Weather History for KAJG - March, 2014

Change the Weather History Date:

Wednesday, March 5, 2014

  Actual Average (KLWV) Record (KLWV)
Temperature  
Mean Temperature 28 °F -  
Max Temperature 39 °F 45 °F 70 °F (1992)
Min Temperature 17 °F 28 °F 4 °F (2015)
Degree Days  
Heating Degree Days 37    
Moisture  
Dew Point 21 °F    
Average Humidity 70    
Maximum Humidity 93    
Minimum Humidity 52    
Precipitation  
Precipitation 0.00 in - - ()
Sea Level Pressure  
Sea Level Pressure 30.25 in    
Wind  
Wind Speed 3 mph (ENE)    
Max Wind Speed 14 mph    
Max Gust Speed -    
Visibility 10 miles    
Events      
Averages and records for this station are not official NWS values.
T = Trace of Precipitation, MM = Missing Value Source: NWS Daily Summary

Daily Weather History Graph

Daily Weather History Graph

Search for Another Location

Airport or City:

Trip Planner

Search our weather history database for the weather conditions in past years. The results will help you decide how hot, cold, wet, or windy it might be!

Date:

Astronomy

Mar. 05, 2014 Rise Set
Actual Time 6:17 AM CST 5:48 PM CST
Civil Twilight 5:50 AM CST 6:14 PM CST
Nautical Twilight 5:20 AM CST 6:45 PM CST
Astronomical Twilight 4:49 AM CST 7:16 PM CST
Moon 8:46 AM CST (3/5) 10:52 PM CST (3/5)
Length of Visible Light 12h 23m
Length of Day
11h 30m
Waxing Crescent, 23% of the Moon is Illuminated
Mar 5
Waxing Crescent
Mar 8
First Quarter
Mar 16
Full
Mar 23
Last Quarter
Mar 30
New

Hourly Weather History & Observations

Time (CST) Temp. Windchill Dew Point Humidity Pressure Visibility Wind Dir Wind Speed Gust Speed Precip Events Conditions
12:15 AM 21.2 °F - 19.4 °F 93% 30.18 in 10.0 mi Calm Calm - N/A   Clear
12:35 AM 21.2 °F - 19.4 °F 93% 30.18 in 10.0 mi Calm Calm - N/A   Clear
12:55 AM 21.2 °F - 19.4 °F 93% 30.18 in 10.0 mi Calm Calm - N/A   Clear
1:15 AM 21.2 °F - 19.4 °F 93% 30.19 in 10.0 mi Calm Calm - N/A   Clear
1:35 AM 21.2 °F - 19.4 °F 93% 30.19 in 10.0 mi Calm Calm - N/A   Clear
1:55 AM 21.2 °F - 19.4 °F 93% 30.19 in 10.0 mi Calm Calm - N/A   Clear
2:20 AM 21.2 °F - 17.6 °F 86% 30.19 in 10.0 mi Calm Calm - N/A   Clear
2:35 AM 21.2 °F - 17.6 °F 86% 30.18 in 10.0 mi Calm Calm - N/A   Clear
2:55 AM 19.4 °F - 17.6 °F 93% 30.19 in 10.0 mi Calm Calm - N/A   Clear
3:15 AM 19.4 °F - 17.6 °F 93% 30.20 in 10.0 mi Calm Calm - N/A   Clear
3:35 AM 21.2 °F - 17.6 °F 86% 30.20 in 10.0 mi Calm Calm - N/A   Clear
3:55 AM 19.4 °F - 17.6 °F 93% 30.21 in 10.0 mi Calm Calm - N/A   Clear
4:15 AM 23.0 °F - 19.4 °F 86% 30.21 in 10.0 mi Calm Calm - N/A   Clear
4:35 AM 23.0 °F - 17.6 °F 80% 30.22 in 10.0 mi Calm Calm - N/A   Clear
5:00 AM 23.0 °F - 17.6 °F 80% 30.22 in 10.0 mi Calm Calm - N/A   Clear
5:15 AM 21.2 °F - 17.6 °F 86% 30.23 in 10.0 mi Calm Calm - N/A   Clear
5:35 AM 23.0 °F - 17.6 °F 80% 30.24 in 10.0 mi Calm Calm - N/A   Clear
5:55 AM 21.2 °F - 17.6 °F 86% 30.24 in 10.0 mi Calm Calm - N/A   Clear
6:15 AM 17.6 °F - 14.0 °F 86% 30.26 in 10.0 mi Calm Calm - N/A   Clear
6:35 AM 17.6 °F - 15.8 °F 93% 30.26 in 7.0 mi Calm Calm - N/A   Clear
6:55 AM 19.4 °F - 15.8 °F 86% 30.26 in 10.0 mi Calm Calm - N/A   Clear
7:15 AM 23.0 °F - 19.4 °F 86% 30.26 in 10.0 mi Calm Calm - N/A   Clear
7:35 AM 24.8 °F - 19.4 °F 80% 30.27 in 10.0 mi Calm Calm - N/A   Clear
7:55 AM 26.6 °F - 21.2 °F 80% 30.27 in 10.0 mi Calm Calm - N/A   Clear
8:15 AM 28.4 °F - 21.2 °F 74% 30.28 in 10.0 mi Calm Calm - N/A   Clear
8:35 AM 30.2 °F 25.4 °F 21.2 °F 69% 30.28 in 10.0 mi ESE 4.6 mph - N/A   Clear
8:55 AM 30.2 °F 26.7 °F 23.0 °F 75% 30.29 in 10.0 mi SE 3.5 mph - N/A   Clear
9:15 AM 32.0 °F - 23.0 °F 69% 30.28 in 10.0 mi Calm Calm - N/A   Clear
9:35 AM 32.0 °F - 23.0 °F 69% 30.28 in 10.0 mi Calm Calm - N/A   Clear
9:55 AM 32.0 °F 25.6 °F 23.0 °F 69% 30.28 in 10.0 mi ESE 6.9 mph - N/A   Clear
10:15 AM 33.8 °F 26.4 °F 23.0 °F 65% 30.27 in 10.0 mi East 9.2 mph - N/A   Clear
10:35 AM 33.8 °F 28.6 °F 23.0 °F 65% 30.28 in 10.0 mi ENE 5.8 mph - N/A   Clear
10:55 AM 35.6 °F 29.9 °F 23.0 °F 60% 30.28 in 10.0 mi ENE 6.9 mph - N/A   Clear
11:15 AM 35.6 °F 29.2 °F 21.2 °F 56% 30.27 in 10.0 mi East 8.1 mph - N/A   Clear
11:35 AM 35.6 °F 29.9 °F 23.0 °F 60% 30.27 in 10.0 mi ENE 6.9 mph - N/A   Clear
11:55 AM 35.6 °F 29.2 °F 23.0 °F 60% 30.26 in 10.0 mi ENE 8.1 mph - N/A   Clear
12:15 PM 37.4 °F 32.8 °F 23.0 °F 56% 30.27 in 10.0 mi East 5.8 mph - N/A   Clear
12:35 PM 37.4 °F 31.4 °F 23.0 °F 56% 30.25 in 10.0 mi ENE 8.1 mph - N/A   Clear
12:55 PM 37.4 °F 31.4 °F 21.2 °F 52% 30.25 in 10.0 mi ENE 8.1 mph - N/A   Clear
1:15 PM 37.4 °F 30.8 °F 23.0 °F 56% 30.24 in 10.0 mi ENE 9.2 mph - N/A   Clear
1:35 PM 39.2 °F 33.6 °F 23.0 °F 52% 30.23 in 10.0 mi ENE 8.1 mph - N/A   Clear
1:55 PM 39.2 °F 33.0 °F 23.0 °F 52% 30.23 in 10.0 mi East 9.2 mph - N/A   Clear
2:15 PM 39.2 °F 32.5 °F 23.0 °F 52% 30.23 in 10.0 mi ENE 10.4 mph - N/A   Clear
2:35 PM 39.2 °F 35.0 °F 23.0 °F 52% 30.23 in 10.0 mi ENE 5.8 mph - N/A   Clear
2:55 PM 39.2 °F 33.0 °F 23.0 °F 52% 30.22 in 10.0 mi ENE 9.2 mph - N/A   Clear
3:15 PM 39.2 °F 34.2 °F 23.0 °F 52% 30.23 in 10.0 mi NE 6.9 mph - N/A   Clear
3:35 PM 39.2 °F 33.6 °F 23.0 °F 52% 30.23 in 10.0 mi NE 8.1 mph - N/A   Clear
3:55 PM 39.2 °F 33.6 °F 23.0 °F 52% 30.23 in 10.0 mi NE 8.1 mph - N/A   Clear
4:15 PM 39.2 °F 33.6 °F 23.0 °F 52% 30.24 in 10.0 mi NE 8.1 mph - N/A   Clear
4:35 PM 39.2 °F 33.0 °F 23.0 °F 52% 30.23 in 10.0 mi NE 9.2 mph - N/A   Clear
4:55 PM 37.4 °F 31.4 °F 23.0 °F 56% 30.24 in 10.0 mi NE 8.1 mph - N/A   Clear
5:15 PM 37.4 °F 32.1 °F 23.0 °F 56% 30.24 in 10.0 mi NE 6.9 mph - N/A   Clear
5:35 PM 35.6 °F 28.6 °F 23.0 °F 60% 30.24 in 10.0 mi NNE 9.2 mph - N/A   Clear
5:55 PM 35.6 °F 28.6 °F 23.0 °F 60% 30.26 in 10.0 mi NNE 9.2 mph - N/A   Clear
6:15 PM 33.8 °F 25.8 °F 24.8 °F 70% 30.25 in 10.0 mi NE 10.4 mph - N/A   Clear
6:35 PM 33.8 °F 24.8 °F 23.0 °F 65% 30.25 in 10.0 mi NE 12.7 mph - N/A   Clear
6:55 PM 33.8 °F 25.3 °F 23.0 °F 65% 30.26 in 10.0 mi NNE 11.5 mph - N/A   Clear
7:15 PM 33.8 °F 24.3 °F 23.0 °F 65% 30.26 in 10.0 mi NNE 13.8 mph - N/A   Clear
7:35 PM 32.0 °F 22.1 °F 23.0 °F 69% 30.26 in 10.0 mi NE 13.8 mph - N/A   Clear
7:55 PM 32.0 °F 23.0 °F 23.0 °F 69% 30.26 in 10.0 mi NE 11.5 mph - N/A   Clear
8:15 PM 32.0 °F 23.0 °F 23.0 °F 69% 30.27 in 10.0 mi NE 11.5 mph - N/A   Clear
8:35 PM 32.0 °F 23.0 °F 21.2 °F 64% 30.28 in 10.0 mi NE 11.5 mph - N/A   Clear
8:55 PM 32.0 °F 23.6 °F 21.2 °F 64% 30.28 in 10.0 mi NE 10.4 mph - N/A   Clear
9:15 PM 32.0 °F 24.2 °F 21.2 °F 64% 30.29 in 10.0 mi NE 9.2 mph - N/A   Clear
9:35 PM 32.0 °F 24.8 °F 21.2 °F 64% 30.29 in 10.0 mi NE 8.1 mph - N/A   Clear
9:55 PM 32.0 °F 24.8 °F 21.2 °F 64% 30.30 in 10.0 mi ENE 8.1 mph - N/A   Clear
10:15 PM 30.2 °F - 21.2 °F 69% 30.31 in 10.0 mi Calm Calm - N/A   Clear
10:35 PM 30.2 °F - 21.2 °F 69% 30.30 in 10.0 mi Calm Calm - N/A   Clear
10:55 PM 30.2 °F - 21.2 °F 69% 30.29 in 10.0 mi Calm Calm - N/A   Clear
11:15 PM 30.2 °F - 21.2 °F 69% 30.29 in 10.0 mi Calm Calm - N/A   Clear
11:35 PM 30.2 °F - 21.2 °F 69% 30.29 in 10.0 mi Calm Calm - N/A   Clear
11:55 PM 30.2 °F - 21.2 °F 69% 30.29 in 10.0 mi Calm Calm - N/A   Clear